Location: Berville
(49.1893°N, 2.0748°E)
Time: 18:36:29
(UTC+00:00)

FENGYUN 1C DEB - Pass Details

Date: 03 March 2024
Orbit: 768 x 960 km, 99.0° (Epoch: 12 April)

Event Time Altitude Azimuth Distance (km) Brightness Sun altitude
Exits shadow 19:53:51 39° 70° (ENE) 1,401 ? -22.7°
Maximum altitude 19:54:09 39° 63° (ENE) 1,395 ? -22.7°
Drops below altitude 10° 19:59:37 10° 357° (N) 2,650 ? -23.5°
Sets 20:02:09 0° 350° (N) 3,574 ? -23.9°
